QPF
0.00 0.00 0.00 0.00 0.00 0.00 0.00 0.00 0.00 0.00 0.00 0.00 0.00 0.00 0.00 0.00 0.00 0.00 0.00 0.00 0.00 0.00 0.00 0.00 0.01 0.02 0.03 0.03 0.03 0.05 0.05 0.06 0.09 0.07 0.07 0.08 0.06 0.05 0.05 0.05 0.05 0.07 0.05 0.04
0.00 0.00 0.00 0.00 0.00 0.00 0.00 0.00 0.00 0.00 0.00 0.00 0.00 0.00 0.00 0.00 0.00 0.00 0.00 0.00 0.00 0.00 0.00 0.01 0.01 0.02 0.02 0.04 0.03 0.05 0.06 0.09 0.13 0.10 0.08 0.09 0.07 0.05 0.04 0.03 0.03 0.05 0.04 0.04
0.00 0.00 0.00 0.00 0.00 0.00 0.00 0.00 0.00 0.00 0.00 0.00 0.00 0.00 0.00 0.00 0.00 0.00 0.00 0.00 0.00 0.00 0.00 0.01 0.01 0.02 0.04 0.03 0.03 0.05 0.07 0.10 0.13 0.11 0.09 0.09 0.07 0.05 0.03 0.03 0.04 0.04 0.03 0.03
0.00 0.00 0.00 0.00 0.00 0.00 0.00 0.00 0.00 0.00 0.00 0.00 0.00 0.00 0.00 0.00 0.00 0.00 0.00 0.00 0.00 0.00 0.00 0.01 0.01 0.03 0.03 0.03 0.03 0.06 0.09 0.12 0.11 0.12 0.12 0.09 0.07 0.05 0.03 0.03 0.04 0.06 0.05 0.04
0.00 0.00 0.00 0.00 0.00 0.00 0.00 0.00 0.00 0.00 0.00 0.00 0.00 0.00 0.00 0.00 0.00 0.00 0.00 0.00 0.00 0.00 0.00 0.01 0.01 0.01 0.01 0.02 0.02 0.03 0.05 0.11 0.10 0.07 0.07 0.09 0.08 0.08 0.05 0.03 0.04 0.06 0.06 0.05
0.00 0.00 0.00 0.00 0.00 0.00 0.00 0.00 0.00 0.00 0.00 0.00 0.00 0.00 0.00 0.00 0.00 0.00 0.00 0.00 0.00 0.00 0.00 0.00 0.00 0.01 0.01 0.01 0.01 0.01 0.02 0.05 0.05 0.04 0.03 0.05 0.08 0.10 0.07 0.04 0.05 0.05 0.06 0.07
0.00 0.00 0.00 0.00 0.00 0.00 0.00 0.00 0.00 0.00 0.00 0.00 0.00 0.00 0.00 0.00 0.00 0.00 0.00 0.00 0.00 0.00 0.00 0.00 0.00 0.00 0.01 0.01 0.00 0.01 0.01 0.02 0.02 0.03 0.04 0.04 0.06 0.09 0.06 0.05 0.05 0.06 0.07 0.08
0.00 0.00 0.00 0.00 0.00 0.00 0.00 0.00 0.00 0.00 0.00 0.00 0.00 0.00 0.00 0.00 0.00 0.00 0.00 0.00 0.00 0.00 0.00 0.00 0.00 0.00 0.00 0.00 0.01 0.01 0.01 0.02 0.02 0.03 0.04 0.04 0.04 0.05 0.04 0.05 0.05 0.06 0.06 0.06
0.00 0.00 0.00 0.00 0.00 0.00 0.00 0.00 0.00 0.00 0.00 0.00 0.00 0.00 0.00 0.00 0.00 0.00 0.00 0.00 0.00 0.00 0.00 0.00 0.00 0.00 0.00 0.00 0.00 0.01 0.01 0.02 0.02 0.03 0.03 0.04 0.04 0.03 0.04 0.05 0.07 0.06 0.05 0.06
0.00 0.00 0.00 0.00 0.00 0.00 0.00 0.00 0.00 0.00 0.00 0.00 0.00 0.00 0.00 0.00 0.00 0.00 0.00 0.00 0.00 0.00 0.00 0.00 0.00 0.00 0.00 0.00 0.00 0.00 0.01 0.01 0.02 0.03 0.02 0.02 0.02 0.02 0.04 0.06 0.07 0.06 0.05 0.05
0.00 0.00 0.00 0.00 0.00 0.00 0.00 0.00 0.00 0.00 0.00 0.00 0.00 0.00 0.00 0.00 0.00 0.00 0.00 0.00 0.00 0.00 0.00 0.00 0.00 0.00 0.00 0.00 0.00 0.00 0.00 0.01 0.01 0.02 0.01 0.01 0.01 0.02 0.03 0.04 0.04 0.04 0.04 0.05
0.00 0.00 0.00 0.00 0.00 0.00 0.00 0.00 0.00 0.00 0.00 0.00 0.00 0.00 0.00 0.00 0.00 0.00 0.00 0.00 0.00 0.00 0.00 0.00 0.00 0.00 0.00 0.00 0.00 0.00 0.00 0.00 0.00 0.01 0.01 0.01 0.01 0.02 0.03 0.03 0.02 0.03 0.03 0.04
0.00 0.00 0.00 0.00 0.00 0.00 0.00 0.00 0.00 0.00 0.00 0.00 0.00 0.00 0.00 0.00 0.00 0.00 0.00 0.00 0.00 0.00 0.00 0.00 0.00 0.00 0.00 0.00 0.00 0.00 0.00 0.00 0.00 0.00 0.01 0.01 0.01 0.01 0.02 0.03 0.03 0.03 0.04 0.04
0.00 0.00 0.00 0.00 0.00 0.00 0.00 0.00 0.00 0.00 0.00 0.00 0.00 0.00 0.00 0.00 0.00 0.00 0.00 0.00 0.00 0.00 0.00 0.00 0.00 0.00 0.00 0.00 0.00 0.01 0.00 0.00 0.01 0.01 0.01 0.01 0.01 0.01 0.02 0.04 0.03 0.04 0.03 0.03
0.00 0.00 0.00 0.00 0.00 0.00 0.00 0.00 0.00 0.00 0.00 0.00 0.00 0.00 0.00 0.00 0.00 0.00 0.00 0.00 0.00 0.00 0.00 0.00 0.00 0.00 0.00 0.00 0.01 0.00 0.00 0.01 0.01 0.02 0.02 0.01 0.02 0.01 0.02 0.03 0.03 0.04 0.03 0.03
0.00 0.00 0.00 0.00 0.00 0.00 0.00 0.00 0.00 0.00 0.00 0.00 0.00 0.00 0.00 0.00 0.00 0.00 0.00 0.00 0.00 0.00 0.00 0.00 0.00 0.01 0.01 0.01 0.01 0.01 0.00 0.01 0.02 0.03 0.02 0.01 0.02 0.01 0.01 0.02 0.02 0.02 0.02 0.03
0.00 0.00 0.00 0.00 0.00 0.00 0.00 0.00 0.00 0.00 0.00 0.00 0.00 0.00 0.00 0.00 0.00 0.00 0.00 0.00 0.00 0.00 0.00 0.01 0.01 0.02 0.03 0.03 0.02 0.01 0.01 0.01 0.03 0.04 0.03 0.02 0.02 0.02 0.02 0.02 0.02 0.02 0.03 0.03
0.00 0.00 0.00 0.00 0.00 0.00 0.00 0.00 0.00 0.00 0.00 0.00 0.00 0.00 0.00 0.00 0.00 0.00 0.00 0.00 0.00 0.00 0.01 0.01 0.01 0.02 0.02 0.02 0.02 0.01 0.01 0.03 0.05 0.04 0.02 0.03 0.03 0.03 0.03 0.04 0.04 0.04 0.03 0.03
0.00 0.00 0.00 0.00 0.00 0.00 0.00 0.00 0.00 0.00 0.00 0.00 0.00 0.00 0.00 0.00 0.00 0.00 0.00 0.00 0.00 0.01 0.02 0.02 0.02 0.02 0.02 0.02 0.01 0.02 0.03 0.03 0.03 0.02 0.03 0.03 0.04 0.03 0.03 0.04 0.05 0.04 0.04 0.03
0.00 0.00 0.00 0.00 0.00 0.00 0.00 0.00 0.00 0.00 0.00 0.00 0.00 0.00 0.00 0.00 0.00 0.00 0.00 0.00 0.00 0.01 0.01 0.02 0.02 0.02 0.02 0.03 0.02 0.03 0.04 0.03 0.02 0.01 0.01 0.02 0.03 0.03 0.03 0.04 0.04 0.03 0.03 0.03
0.00 0.00 0.00 0.00 0.00 0.00 0.00 0.00 0.00 0.00 0.00 0.00 0.00 0.00 0.00 0.00 0.00 0.00 0.00 0.00 0.00 0.01 0.01 0.01 0.02 0.02 0.02 0.03 0.02 0.02 0.03 0.03 0.02 0.02 0.02 0.02 0.02 0.02 0.02 0.02 0.01 0.01 0.01 0.01
0.00 0.00 0.00 0.00 0.00 0.00 0.00 0.00 0.00 0.00 0.00 0.00 0.00 0.00 0.00 0.01 0.00 0.00 0.00 0.00 0.01 0.02 0.02 0.02 0.02 0.02 0.03 0.03 0.03 0.03 0.04 0.05 0.05 0.04 0.05 0.05 0.04 0.03 0.02 0.02 0.01 0.01 0.01 0.02
0.00 0.00 0.00 0.00 0.00 0.00 0.00 0.00 0.00 0.00 0.00 0.00 0.00 0.00 0.00 0.00 0.00 0.00 0.01 0.01 0.02 0.03 0.04 0.04 0.04 0.03 0.03 0.03 0.03 0.06 0.08 0.09 0.07 0.06 0.06 0.05 0.04 0.03 0.02 0.02 0.01 0.02 0.02 0.02
0.01 0.01 0.01 0.01 0.00 0.00 0.00 0.00 0.00 0.00 0.00 0.00 0.00 0.01 0.01 0.01 0.00 0.01 0.02 0.03 0.05 0.06 0.06 0.05 0.05 0.04 0.03 0.03 0.04 0.06 0.08 0.08 0.05 0.05 0.05 0.04 0.03 0.03 0.02 0.01 0.01 0.02 0.02 0.02
0.01 0.01 0.01 0.01 0.01 0.01 0.01 0.01 0.01 0.01 0.01 0.01 0.01 0.01 0.01 0.01 0.01 0.01 0.02 0.04 0.05 0.06 0.06 0.04 0.04 0.03 0.03 0.02 0.03 0.03 0.04 0.04 0.04 0.06 0.07 0.07 0.06 0.05 0.03 0.03 0.02 0.02 0.02 0.03
0.01 0.01 0.02 0.02 0.02 0.02 0.02 0.02 0.01 0.01 0.01 0.01 0.01 0.01 0.01 0.01 0.02 0.02 0.03 0.03 0.03 0.04 0.05 0.04 0.03 0.03 0.03 0.02 0.02 0.03 0.04 0.06 0.07 0.09 0.10 0.09 0.07 0.07 0.06 0.06 0.05 0.05 0.05 0.05
MSLP
1010.63 1011.19 1011.65 1011.99 1012.21 1012.35 1012.41 1012.42 1012.39 1012.34 1012.26 1012.15 1012.03 1011.89 1011.77 1011.68 1011.65 1011.70 1011.82 1012.03 1012.29 1012.59 1012.90 1013.20 1013.48 1013.75 1014.02 1014.30 1014.59 1014.90 1015.23 1015.54 1015.82 1016.05 1016.21 1016.31 1016.35 1016.35 1016.35 1016.37 1016.44 1016.55 1016.71 1016.91
1011.39 1011.81 1012.12 1012.33 1012.46 1012.54 1012.59 1012.64 1012.67 1012.68 1012.65 1012.56 1012.42 1012.22 1012.01 1011.80 1011.66 1011.60 1011.66 1011.82 1012.08 1012.40 1012.75 1013.10 1013.42 1013.70 1013.97 1014.22 1014.48 1014.75 1015.05 1015.36 1015.65 1015.92 1016.13 1016.27 1016.34 1016.36 1016.35 1016.35 1016.37 1016.44 1016.56 1016.74
1012.06 1012.32 1012.48 1012.55 1012.59 1012.63 1012.70 1012.79 1012.90 1012.99 1013.02 1012.96 1012.79 1012.53 1012.20 1011.87 1011.59 1011.42 1011.39 1011.50 1011.75 1012.10 1012.50 1012.90 1013.26 1013.58 1013.85 1014.09 1014.33 1014.58 1014.87 1015.17 1015.49 1015.79 1016.05 1016.23 1016.35 1016.39 1016.38 1016.35 1016.34 1016.37 1016.46 1016.62
1012.56 1012.67 1012.68 1012.65 1012.63 1012.66 1012.77 1012.94 1013.15 1013.33 1013.42 1013.37 1013.18 1012.83 1012.38 1011.90 1011.47 1011.17 1011.03 1011.09 1011.32 1011.69 1012.13 1012.59 1013.01 1013.37 1013.66 1013.91 1014.14 1014.38 1014.65 1014.96 1015.30 1015.64 1015.94 1016.17 1016.32 1016.39 1016.39 1016.36 1016.33 1016.34 1016.41 1016.57
1012.83 1012.82 1012.74 1012.65 1012.61 1012.68 1012.87 1013.15 1013.46 1013.74 1013.89 1013.85 1013.61 1013.17 1012.58 1011.94 1011.34 1010.89 1010.64 1010.62 1010.83 1011.21 1011.69 1012.21 1012.68 1013.09 1013.41 1013.67 1013.89 1014.12 1014.39 1014.70 1015.05 1015.42 1015.76 1016.04 1016.24 1016.34 1016.36 1016.34 1016.31 1016.31 1016.39 1016.55
1012.87 1012.78 1012.66 1012.56 1012.57 1012.72 1013.02 1013.43 1013.87 1014.23 1014.43 1014.40 1014.09 1013.54 1012.81 1012.00 1011.24 1010.63 1010.26 1010.17 1010.33 1010.72 1011.23 1011.80 1012.33 1012.78 1013.13 1013.40 1013.62 1013.84 1014.09 1014.39 1014.75 1015.13 1015.50 1015.82 1016.05 1016.19 1016.25 1016.25 1016.23 1016.25 1016.34 1016.51
1012.72 1012.60 1012.49 1012.44 1012.54 1012.80 1013.23 1013.77 1014.31 1014.76 1014.99 1014.95 1014.58 1013.92 1013.06 1012.09 1011.18 1010.43 1009.95 1009.78 1009.90 1010.28 1010.82 1011.42 1011.99 1012.47 1012.85 1013.13 1013.34 1013.54 1013.77 1014.06 1014.40 1014.78 1015.16 1015.51 1015.78 1015.95 1016.04 1016.06 1016.07 1016.11 1016.22 1016.41
1012.44 1012.35 1012.28 1012.31 1012.51 1012.89 1013.44 1014.09 1014.72 1015.22 1015.47 1015.40 1014.98 1014.24 1013.26 1012.18 1011.14 1010.29 1009.73 1009.49 1009.58 1009.95 1010.49 1011.11 1011.71 1012.22 1012.62 1012.90 1013.10 1013.28 1013.48 1013.74 1014.06 1014.42 1014.80 1015.15 1015.43 1015.63 1015.74 1015.79 1015.83 1015.89 1016.01 1016.21
1012.14 1012.08 1012.08 1012.19 1012.48 1012.96 1013.59 1014.30 1014.97 1015.49 1015.75 1015.65 1015.18 1014.39 1013.35 1012.20 1011.10 1010.19 1009.58 1009.31 1009.37 1009.73 1010.27 1010.90 1011.51 1012.03 1012.44 1012.72 1012.92 1013.08 1013.25 1013.47 1013.76 1014.10 1014.45 1014.79 1015.07 1015.28 1015.41 1015.48 1015.53 1015.60 1015.73 1015.94
1011.90 1011.88 1011.92 1012.10 1012.44 1012.95 1013.60 1014.31 1014.98 1015.47 1015.70 1015.58 1015.09 1014.28 1013.24 1012.10 1011.00 1010.10 1009.48 1009.20 1009.26 1009.59 1010.13 1010.75 1011.36 1011.89 1012.30 1012.58 1012.78 1012.94 1013.10 1013.30 1013.55 1013.86 1014.19 1014.50 1014.77 1014.97 1015.10 1015.17 1015.23 1015.30 1015.43 1015.63
1011.77 1011.77 1011.84 1012.02 1012.35 1012.83 1013.43 1014.07 1014.66 1015.09 1015.26 1015.12 1014.65 1013.88 1012.89 1011.82 1010.80 1009.96 1009.39 1009.13 1009.19 1009.51 1010.02 1010.62 1011.22 1011.74 1012.15 1012.46 1012.67 1012.84 1013.01 1013.21 1013.45 1013.74 1014.04 1014.33 1014.57 1014.75 1014.86 1014.93 1014.98 1015.05 1015.17 1015.37
1011.75 1011.75 1011.81 1011.95 1012.21 1012.59 1013.07 1013.58 1014.04 1014.37 1014.48 1014.33 1013.89 1013.20 1012.34 1011.40 1010.51 1009.77 1009.28 1009.06 1009.12 1009.42 1009.89 1010.45 1011.02 1011.53 1011.95 1012.28 1012.54 1012.75 1012.96 1013.19 1013.45 1013.73 1014.01 1014.28 1014.49 1014.64 1014.74 1014.79 1014.83 1014.89 1015.00 1015.19
1011.82 1011.81 1011.82 1011.88 1012.03 1012.26 1012.57 1012.90 1013.21 1013.41 1013.46 1013.30 1012.93 1012.36 1011.65 1010.88 1010.16 1009.56 1009.15 1008.98 1009.04 1009.30 1009.71 1010.21 1010.72 1011.21 1011.64 1012.01 1012.33 1012.61 1012.89 1013.18 1013.48 1013.79 1014.08 1014.32 1014.52 1014.64 1014.71 1014.75 1014.78 1014.83 1014.94 1015.12
1011.91 1011.87 1011.83 1011.80 1011.81 1011.88 1012.00 1012.14 1012.28 1012.37 1012.36 1012.21 1011.91 1011.48 1010.95 1010.38 1009.82 1009.36 1009.05 1008.90 1008.93 1009.13 1009.45 1009.86 1010.31 1010.77 1011.21 1011.62 1012.02 1012.40 1012.78 1013.15 1013.52 1013.87 1014.18 1014.43 1014.61 1014.71 1014.76 1014.78 1014.80 1014.85 1014.96 1015.14
1011.96 1011.91 1011.81 1011.70 1011.59 1011.50 1011.44 1011.42 1011.41 1011.40 1011.34 1011.21 1011.01 1010.72 1010.37 1009.98 1009.59 1009.25 1009.00 1008.86 1008.84 1008.94 1009.15 1009.45 1009.82 1010.22 1010.66 1011.12 1011.60 1012.09 1012.58 1013.06 1013.52 1013.93 1014.27 1014.53 1014.70 1014.80 1014.83 1014.83 1014.85 1014.90 1015.02 1015.21
1011.93 1011.87 1011.75 1011.58 1011.38 1011.17 1010.99 1010.83 1010.71 1010.62 1010.54 1010.46 1010.35 1010.20 1010.00 1009.77 1009.52 1009.27 1009.06 1008.89 1008.79 1008.77 1008.85 1009.02 1009.29 1009.63 1010.06 1010.56 1011.11 1011.70 1012.31 1012.90 1013.45 1013.93 1014.31 1014.59 1014.77 1014.86 1014.88 1014.88 1014.89 1014.94 1015.07 1015.28
1011.79 1011.74 1011.62 1011.43 1011.20 1010.93 1010.67 1010.44 1010.26 1010.13 1010.06 1010.02 1009.99 1009.96 1009.90 1009.79 1009.64 1009.45 1009.24 1009.02 1008.83 1008.68 1008.61 1008.65 1008.80 1009.08 1009.48 1010.00 1010.61 1011.29 1011.99 1012.68 1013.32 1013.86 1014.29 1014.60 1014.79 1014.87 1014.89 1014.89 1014.90 1014.96 1015.10 1015.32
1011.57 1011.55 1011.45 1011.29 1011.06 1010.79 1010.51 1010.26 1010.06 1009.93 1009.88 1009.89 1009.94 1010.00 1010.04 1010.02 1009.94 1009.78 1009.55 1009.28 1008.98 1008.71 1008.50 1008.40 1008.44 1008.64 1009.01 1009.53 1010.17 1010.91 1011.69 1012.45 1013.15 1013.75 1014.23 1014.56 1014.76 1014.85 1014.88 1014.88 1014.89 1014.96 1015.10 1015.33
1011.33 1011.33 1011.28 1011.15 1010.97 1010.73 1010.48 1010.25 1010.08 1009.97 1009.95 1010.01 1010.12 1010.24 1010.35 1010.40 1010.36 1010.21 1009.97 1009.64 1009.26 1008.88 1008.56 1008.35 1008.29 1008.41 1008.73 1009.22 1009.87 1010.63 1011.45 1012.25 1013.00 1013.63 1014.14 1014.50 1014.72 1014.83 1014.87 1014.88 1014.91 1014.98 1015.13 1015.36
1011.12 1011.14 1011.13 1011.06 1010.93 1010.76 1010.56 1010.38 1010.24 1010.17 1010.18 1010.27 1010.42 1010.59 1010.74 1010.83 1010.82 1010.69 1010.44 1010.08 1009.66 1009.21 1008.82 1008.52 1008.38 1008.43 1008.68 1009.13 1009.75 1010.50 1011.31 1012.12 1012.87 1013.53 1014.05 1014.44 1014.69 1014.83 1014.90 1014.95 1015.00 1015.09 1015.24 1015.46
1011.00 1011.03 1011.05 1011.02 1010.95 1010.84 1010.70 1010.57 1010.47 1010.44 1010.48 1010.59 1010.76 1010.95 1011.13 1011.25 1011.27 1011.17 1010.93 1010.58 1010.15 1009.69 1009.26 1008.92 1008.72 1008.70 1008.89 1009.28 1009.83 1010.52 1011.28 1012.06 1012.80 1013.45 1013.99 1014.40 1014.69 1014.88 1015.00 1015.09 1015.18 1015.31 1015.47 1015.70
1011.02 1011.03 1011.06 1011.07 1011.04 1010.98 1010.89 1010.80 1010.73 1010.72 1010.77 1010.89 1011.07 1011.27 1011.47 1011.61 1011.67 1011.61 1011.42 1011.12 1010.72 1010.29 1009.86 1009.51 1009.28 1009.21 1009.33 1009.63 1010.09 1010.69 1011.37 1012.08 1012.76 1013.39 1013.93 1014.37 1014.71 1014.97 1015.16 1015.32 1015.48 1015.65 1015.85 1016.08
1011.17 1011.16 1011.18 1011.20 1011.19 1011.16 1011.10 1011.04 1010.99 1010.99 1011.04 1011.15 1011.32 1011.53 1011.73 1011.90 1012.00 1012.00 1011.88 1011.65 1011.34 1010.97 1010.59 1010.25 1010.01 1009.89 1009.94 1010.14 1010.49 1010.96 1011.53 1012.14 1012.75 1013.34 1013.87 1014.34 1014.73 1015.07 1015.35 1015.61 1015.85 1016.09 1016.34 1016.60
1011.44 1011.39 1011.39 1011.40 1011.40 1011.38 1011.34 1011.29 1011.25 1011.23 1011.27 1011.37 1011.52 1011.72 1011.93 1012.12 1012.26 1012.33 1012.30 1012.17 1011.95 1011.67 1011.36 1011.06 1010.83 1010.68 1010.65 1010.74 1010.97 1011.30 1011.73 1012.22 1012.75 1013.27 1013.79 1014.28 1014.73 1015.15 1015.54 1015.90 1016.24 1016.57 1016.88 1017.18
1011.77 1011.69 1011.66 1011.66 1011.65 1011.63 1011.59 1011.54 1011.49 1011.47 1011.49 1011.56 1011.69 1011.87 1012.07 1012.28 1012.47 1012.60 1012.66 1012.63 1012.52 1012.33 1012.11 1011.87 1011.65 1011.48 1011.38 1011.38 1011.47 1011.67 1011.96 1012.32 1012.74 1013.20 1013.69 1014.19 1014.69 1015.19 1015.68 1016.15 1016.60 1017.02 1017.41 1017.75
1012.10 1012.00 1011.96 1011.93 1011.92 1011.89 1011.85 1011.80 1011.74 1011.70 1011.69 1011.74 1011.83 1011.98 1012.18 1012.39 1012.60 1012.78 1012.91 1012.97 1012.96 1012.88 1012.74 1012.56 1012.38 1012.20 1012.06 1011.98 1011.97 1012.04 1012.20 1012.44 1012.76 1013.15 1013.60 1014.10 1014.64 1015.21 1015.78 1016.35 1016.89 1017.39 1017.85 1018.24
Thickness
5840 5836 5832 5838 5843 5842 5839 5835 5832 5836 5847 5842 5839 5840 5845 5846 5841 5836 5832 5828 5822 5819 5818 5814 5808 5804 5797 5791 5785 5780 5775 5771 5767 5764 5760 5758 5758 5758 5757 5756 5754 5752 5752 5751
5825 5825 5838 5842 5840 5837 5835 5831 5832 5836 5843 5839 5838 5840 5848 5847 5842 5841 5837 5831 5827 5823 5818 5812 5808 5804 5799 5793 5788 5783 5777 5773 5770 5767 5763 5761 5760 5760 5759 5758 5755 5754 5753 5752
5821 5830 5837 5833 5830 5829 5831 5830 5832 5830 5836 5841 5835 5834 5840 5846 5846 5844 5843 5840 5835 5828 5822 5815 5810 5806 5802 5796 5791 5788 5781 5776 5772 5769 5766 5763 5760 5758 5759 5758 5757 5756 5754 5753
5821 5830 5827 5826 5827 5831 5823 5837 5834 5830 5826 5828 5828 5819 5834 5842 5840 5841 5842 5841 5837 5833 5827 5821 5814 5809 5805 5800 5796 5790 5784 5778 5774 5771 5768 5764 5760 5758 5759 5759 5759 5756 5754 5753
5813 5822 5821 5820 5828 5833 5831 5837 5834 5830 5826 5821 5826 5818 5832 5841 5835 5841 5844 5844 5842 5837 5832 5825 5819 5813 5809 5805 5799 5793 5786 5781 5777 5773 5769 5765 5763 5762 5762 5761 5758 5756 5756 5754
5819 5826 5827 5828 5834 5835 5832 5830 5827 5827 5826 5804 5815 5811 5818 5839 5838 5842 5846 5845 5843 5840 5834 5828 5823 5817 5811 5807 5801 5796 5788 5782 5779 5775 5771 5767 5764 5762 5760 5758 5757 5756 5756 5754
5801 5813 5826 5831 5822 5825 5826 5815 5802 5798 5800 5803 5816 5810 5821 5842 5846 5846 5845 5845 5844 5841 5835 5828 5822 5816 5811 5807 5802 5797 5790 5784 5780 5777 5773 5770 5767 5763 5760 5758 5757 5756 5756 5754
5788 5794 5815 5824 5822 5819 5820 5820 5798 5787 5794 5808 5808 5809 5831 5847 5849 5850 5850 5849 5844 5840 5837 5830 5825 5819 5813 5808 5804 5798 5792 5786 5782 5778 5775 5772 5769 5766 5765 5761 5759 5757 5756 5756
5794 5795 5816 5822 5828 5825 5813 5816 5831 5813 5804 5798 5810 5818 5835 5845 5844 5846 5845 5844 5841 5839 5837 5832 5827 5822 5816 5810 5805 5801 5794 5788 5784 5780 5776 5772 5769 5766 5765 5762 5759 5758 5755 5755
5801 5789 5805 5813 5818 5817 5822 5824 5813 5804 5783 5781 5797 5804 5816 5828 5834 5839 5839 5839 5840 5839 5836 5832 5828 5823 5819 5813 5808 5803 5796 5790 5786 5782 5778 5775 5771 5768 5765 5762 5759 5756 5755 5753
5800 5786 5793 5801 5799 5804 5803 5805 5808 5808 5805 5787 5785 5805 5834 5831 5835 5836 5839 5841 5841 5839 5837 5833 5829 5825 5820 5816 5809 5802 5796 5791 5787 5784 5780 5776 5772 5769 5765 5762 5759 5757 5755 5753
5791 5788 5784 5794 5810 5815 5813 5811 5806 5792 5787 5793 5794 5808 5840 5839 5841 5840 5840 5841 5842 5841 5839 5835 5830 5825 5820 5815 5810 5804 5798 5793 5789 5785 5780 5776 5772 5769 5765 5762 5760 5757 5754 5752
5782 5775 5763 5772 5785 5795 5798 5805 5809 5807 5798 5792 5789 5805 5837 5837 5837 5838 5837 5838 5837 5836 5836 5833 5828 5823 5819 5815 5811 5806 5801 5796 5791 5786 5781 5776 5772 5769 5765 5763 5760 5757 5754 5751
5776 5771 5769 5771 5785 5794 5790 5795 5801 5799 5793 5791 5795 5808 5823 5827 5828 5831 5832 5833 5834 5833 5831 5829 5825 5821 5818 5815 5810 5805 5801 5797 5793 5788 5782 5776 5772 5769 5765 5762 5759 5755 5752 5749
5767 5763 5771 5782 5792 5795 5793 5794 5795 5793 5799 5797 5802 5806 5816 5822 5824 5826 5828 5829 5828 5827 5826 5825 5823 5820 5816 5812 5808 5805 5801 5796 5792 5787 5781 5776 5773 5769 5765 5760 5757 5753 5750 5748
5756 5756 5763 5766 5781 5783 5782 5791 5792 5793 5798 5800 5803 5804 5821 5824 5824 5822 5823 5823 5822 5822 5823 5823 5821 5818 5814 5810 5807 5803 5798 5794 5790 5785 5780 5776 5771 5767 5763 5759 5754 5750 5747 5744
5747 5745 5747 5755 5770 5768 5763 5783 5788 5790 5797 5798 5794 5803 5813 5812 5812 5813 5817 5819 5819 5821 5821 5820 5818 5816 5814 5810 5807 5801 5798 5794 5788 5783 5779 5774 5769 5764 5760 5758 5752 5747 5743 5740
5732 5735 5743 5751 5750 5734 5773 5795 5795 5789 5792 5798 5798 5802 5804 5806 5808 5811 5814 5815 5815 5818 5818 5818 5817 5815 5814 5811 5807 5803 5798 5792 5786 5780 5775 5771 5766 5761 5757 5753 5749 5744 5740 5736
5733 5728 5735 5741 5739 5748 5764 5778 5783 5778 5777 5790 5791 5793 5799 5804 5805 5806 5808 5811 5812 5814 5815 5816 5816 5815 5812 5808 5804 5799 5793 5788 5782 5777 5773 5768 5764 5758 5753 5748 5744 5739 5735 5732
5725 5724 5727 5732 5730 5734 5757 5773 5780 5774 5761 5781 5783 5784 5789 5793 5790 5792 5799 5803 5805 5807 5809 5810 5811 5811 5806 5803 5800 5794 5789 5784 5778 5774 5770 5765 5760 5755 5749 5745 5740 5736 5732 5728
5709 5711 5717 5724 5727 5742 5754 5764 5765 5747 5754 5770 5775 5777 5780 5778 5780 5784 5790 5792 5795 5798 5800 5802 5802 5801 5798 5796 5791 5786 5783 5778 5775 5771 5765 5760 5755 5750 5746 5741 5736 5732 5728 5723
5705 5710 5710 5719 5719 5725 5742 5749 5746 5747 5757 5761 5765 5768 5768 5770 5773 5776 5779 5781 5784 5786 5789 5790 5789 5788 5788 5786 5781 5776 5773 5772 5769 5764 5759 5753 5749 5745 5740 5734 5730 5726 5722 5717
5695 5702 5712 5713 5715 5719 5728 5733 5738 5744 5744 5748 5753 5758 5760 5760 5762 5765 5767 5769 5772 5774 5775 5777 5776 5775 5774 5774 5771 5766 5765 5763 5759 5755 5749 5745 5741 5738 5734 5729 5724 5720 5715 5712
5681 5688 5693 5695 5702 5710 5717 5723 5727 5732 5734 5739 5743 5747 5750 5750 5752 5753 5755 5757 5758 5760 5762 5763 5763 5761 5760 5761 5760 5758 5755 5753 5749 5745 5741 5737 5733 5729 5724 5721 5719 5715 5710 5706
5669 5676 5680 5681 5689 5696 5702 5707 5712 5718 5723 5727 5731 5734 5737 5739 5740 5741 5742 5744 5746 5747 5748 5750 5750 5749 5748 5749 5748 5747 5745 5742 5738 5735 5731 5728 5725 5720 5715 5711 5707 5704 5700 5698
5660 5664 5668 5672 5680 5684 5687 5695 5701 5704 5708 5713 5716 5719 5724 5726 5727 5729 5730 5732 5734 5734 5735 5735 5736 5735 5736 5736 5735 5735 5734 5732 5728 5724 5722 5720 5716 5711 5707 5702 5695 5688 5686 5682